Regional Weather Roundup
Issued by NWS

Home | Current Version | Previous Version | Graphics & Text | Print | Product List | Glossary On
Versions: 1 2 3 4 5 6 7 8 9 10 11 12 13 14 15 16 17 18 19 20 21 22 23 24 25 26 27 28 29 30 31 32 33 34 35 36 37 38 39 40 41 42 43 44 45 46 47 48 49 50
000
ASUS43 KMKX 081300
RWRWI

WISCONSIN REGIONAL WEATHER ROUNDUP
NATIONAL WEATHER SERVICE MILWAUKEE/SULLIVAN WI
700 AM CST MON FEB 08 2016

NOTE: "FAIR" INDICATES FEW OR NO CLOUDS BELOW 12,000 FEET WITH NO
SIGNIFICANT WEATHER AND/OR OBSTRUCTIONS TO VISIBILITY.

WIZ001-002-006>008-014>016-023>028-081400-
NORTHWEST WISCONSIN

CITY           SKY/WX    TMP DP  RH WIND       PRES   REMARKS
SUPERIOR ARPT  CLOUDY    13   6  73 NW12G18   29.85R WCI  -1
ASHLAND        FLURRIES  19  14  81 NW15G21   29.76R WCI   5
HAYWARD        LGT SNOW  13   7  77 VRB6      29.75R WCI   4
SIREN          FLURRIES  12   6  76 NW13G21   29.83R WCI  -3
CUMBERLAND     FLURRIES  12   7  79 NW16      29.76R WCI  -4
RICE LAKE      LGT SNOW  13   8  79 NW8       29.78R WCI   2
CHETEK         LGT SNOW  13   9  83 MISG      29.75R
LADYSMITH      CLOUDY    17  12  82 NW16      29.71R HAZE    WCI   1
EAU CLAIRE     NOT AVBL
MENOMONIE      FLURRIES  15   9  74 NW15      29.77R WCI   0
NEW RICHMOND   FLURRIES  13   7  77 NW17G24   29.81R WCI  -4
OSCEOLA        CLOUDY    13   6  73 NW16G23   29.87R WCI  -4
$$

WIZ003>005-009-010-017-018-081400-
NORTH CENTRAL WISCONSIN

CITY           SKY/WX    TMP DP  RH WIND       PRES   REMARKS
MANITOWISH WTR FLURRIES  19  17  88 N12G17    29.63R WCI   7
ARBOR VITAE    LGT SNOW  23  20  89 N12       29.61R WCI  12
WOODRUFF       LGT SNOW  23  20  89 N12       29.61R WCI  12
RHINELANDER    FLURRIES  23  18  81 N8        29.60R WCI  14
EAGLE RIVER    LGT SNOW  21  18  89 N15G21    29.60R WCI   8
LAND O LAKES   CLOUDY    20  17  88 N14G22    29.61R FOG     WCI   7
PHILLIPS       CLOUDY    22  19  87 N10       29.63R WCI  11
TOMAHAWK       CLOUDY    24  19  83 NW9G18    29.61R WCI  14
MEDFORD        CLOUDY    19  16  88 NW14G20   29.61R WCI   5
MERRILL        CLOUDY    24  21  87 NW3       29.60R
$$

WIZ029-030-035-036-043>047-081400-
CENTRAL WISCONSIN

CITY           SKY/WX    TMP DP  RH WIND       PRES   REMARKS
WAUSAU         CLOUDY    24  18  77 W8        29.60R WCI  15
MOSINEE        CLOUDY    21  19  93 NW13G20   29.62R WCI   9
MARSHFIELD     CLOUDY    18  12  77 NW15      29.63R WCI   4
STEVENS POINT  CLOUDY    20  15  82 W7        29.63R WCI  11
WAUPACA        CLOUDY    28  21  74 W12G17    29.61S WCI  18
WAUTOMA        CLOUDY    25  18  74 NW10      29.64R WCI  15
WISC RAPIDS    CLOUDY    20  12  71 NW14      29.66R WCI   7
CAMP DOUGLAS   NOT AVBL
$$

WIZ011>013-019>022-031-037>040-048>050-081400-
NORTHEAST WISCONSIN

CITY           SKY/WX    TMP DP  RH WIND       PRES   REMARKS
ANTIGO         CLOUDY    24  21  89 NW7       29.57R WCI  16
SHAWANO        CLOUDY    32  25  76 NW7       29.59R WCI  26
OCONTO         CLOUDY    32  32 100 W5        29.57R WCI  28
STURGEON BAY   CLOUDY    32  27  80 W3        29.59R
GREEN BAY      CLOUDY    31  26  82 W12       29.58R WCI  22
MANITOWOC      LGT RAIN  34  30  86 W8        29.58R WCI  27
APPLETON       CLOUDY    28  21  74 W12       29.57R WCI  18
CLINTONVILLE   CLOUDY    30  23  74 NW9       29.59R WCI  22
OSHKOSH        CLOUDY    27  20  75 W14       29.60R WCI  16
$$

WIZ032>034-041-042-053>061-081400-
SOUTHWEST WISCONSIN

CITY           SKY/WX    TMP DP  RH WIND       PRES   REMARKS
LA CROSSE      CLOUDY    18  11  74 NW14      29.75R WCI   4
SPARTA         FLURRIES  18  13  80 W10       29.73R WCI   7
VIROQUA        CLOUDY    16  13  89 NW13      29.68R WCI   2
BOSCOBEL       FLURRIES  20  13  74 NW7G16    29.74R WCI  11
PRAIRIE DU CHI MIX PCPN  18  11  73 NW16      29.75R WCI   3
PLATTEVILLE    CLOUDY    19  16  86 NW15      29.68R WCI   5
$$

WIZ056-057-062-063-064-067-068-081400-
SOUTH CENTRAL WISCONSIN

CITY           SKY/WX    TMP DP  RH WIND       PRES   REMARKS
REEDSBURG      LGT SNOW  19  16  86 NW10      29.67R WCI   8
BARABOO/DELLS  LGT SNOW  20  16  83 NW8       29.65R WCI  11
LONE ROCK      NOT AVBL
MINERAL POINT  FLURRIES  21  18  86 NW10G17   29.66R WCI  10
MADISON        FLURRIES  24  18  77 NW12G18   29.64R WCI  13
MIDDLETON      CLOUDY    25  21  85 NW13      29.64R WCI  13
WATERTOWN      CLOUDY    28  25  89 NW14      29.61R WCI  17
MONROE         LGT SNOW  23  21  93 W13G20    29.63R WCI  11
JANESVILLE     CLOUDY    28  21  74 W13       29.63R WCI  18
$$

WIZ051-052-058>065-066-070>072-081400-
SOUTHEAST WISCONSIN

CITY           SKY/WX    TMP DP  RH WIND       PRES   REMARKS
MILWAUKEE      LGT SNOW  31  28  89 NW8       29.59R VSB 1   WCI  23
WAUKESHA       CLOUDY    28  27  93 W10       29.60R WCI  19
MILWAUKEE/TIMM CLOUDY    30  27  86 NW7       29.60R WCI  23
RACINE         CLOUDY    33  28  81 W7        29.60S WCI  27
BURLINGTON     CLOUDY    29  27  95 W7        29.60S FOG     WCI  21
KENOSHA        CLOUDY    30  28  92 W14       29.60R FOG     WCI  19
FOND DU LAC    CLOUDY    28  22  78 NW7       29.61R WCI  21
SHEBOYGAN      CLOUDY    30  25  81 NW12      29.58R WCI  20
WEST BEND      CLOUDY    30  25  80 NW12      29.59R WCI  21
JUNEAU         CLOUDY    27  22  83 NW9       29.61R WCI  17
$$

LSZ147-162-081400-
LAKE SUPERIOR

STATION/POSITION TIME  TEMP    WIND        PRES    WAVE
                       AIR SEA DIR/SP/G            HT/PER
                 (UTC) (F)     (DEG/KT/KT) (MB)    (FT/S)
DEVILS ISLAND    1200   17     340/ 19/ 22 1008.8R
PORT WING        1200   20     330/ 14/ 23 1008.8R
SAXON HARBOR     1200   23                 1006.4R
$$

LMZ867-665-643>646-081400-
LAKE MICHIGAN

STATION/POSITION TIME  TEMP    WIND        PRES    WAVE
                       AIR SEA DIR/SP/G            HT/PER
                 (UTC) (F)     (DEG/KT/KT) (MB)    (FT/S)
CHAMBERS ISLAND  1200   33     230/  2/  3 1001.7R
NORTHPORT PIER   1200   33      CALM  /  1 1001.7R
KEWAUNEE LAKESHO 1200   32     300/  4/  6 1000.5R
SHEBOYGAN LAKESH 1200   33     280/  8/ 10 1002.1R
PORT WASHINGTON  1200   33     320/  7/ 12 1002.7
MILWAUKEE LAKESH 1210   33     250/  6/  7   N/A
KENOSHA   LAKESH 1200   33     260/ 11/ 13 1002.4S
$$

TC  - TEMPERATURE IN CELSIUS
VSB - VISIBILITY IN STATUTE MILES
WCI - WIND CHILL INDEX
HX  - HEAT INDEX




USA.gov is the U.S. government's official web portal to all federal, state and local government web resources and services.